Regional Weather Roundup
Issued by NWS

Home | Current Version | Previous Version | Text Only | Print | Product List | Glossary On
Versions: 1 2 3 4 5 6 7 8 9 10 11 12 13 14 15 16 17 18 19 20 21 22 23 24 25 26 27
000
ASUS44 KJAN 241810
RWRMS

MISSISSIPPI HOURLY WEATHER ROUNDUP
NATIONAL WEATHER SERVICE JACKSON MS
100 PM CDT MON JUL 24 2017

NOTE: "FAIR: INDICATES FEW OR NO CLOUDS BELOW 12,000 FEET WITH NO
SIGNIFICANT WEATHER AND/OR OBSTRUCTIONS TO VISIBILITY.

MSZ001>002-007>008-010>013-018>021-025>028-034>036-241900-
NORTHWEST MISSISSIPPI

CITY           SKY/WX    TMP DP  RH WIND       PRES   REMARKS
BATESVILLE     FAIR      88  72  58 CALM      29.98S HX  94
CLARKSDALE       N/A     88  77  70 CALM      29.98R HX 100
CLEVELAND      FAIR      85  79  82 CALM      29.97S HX  98
GREENWOOD      MOSUNNY   86  76  71 VRB3      29.96F HX  96
6HR MIN TEMP:  76; 6HR MAX TEMP:  87;

GREENVILLE     PTSUNNY   86  75  69 W8        29.96F HX  95
6HR MIN TEMP:  76; 6HR MAX TEMP:  86;

OLIVE BRANCH   PTSUNNY  N/A N/A N/A CALM      29.97R
OXFORD         PTSUNNY   84  73  70 S7        30.00S HX  91
TUNICA           N/A     86  73  66 SW6       29.98S HX  93
WINONA         CLOUDY    85  76  72 CALM      29.98S HX  95
$$

MSZ003>006-009-014>017-022>024-029>033-037>039-241900-
NORTHEAST MISSISSIPPI

CITY           SKY/WX    TMP DP  RH WIND       PRES   REMARKS
COLUMBUS AFB   PTSUNNY   88  77  70 S6        29.97F HX 100
6HR MIN TEMP:  75; 6HR MAX TEMP:  88;

CORINTH        FAIR      88  75  66 VRB3      29.96S HX  97
STARKVILLE     FAIR      86  73  66 CALM      30.00S HX  93
TUPELO         CLOUDY    84  73  69 S6        29.98F HX  90
6HR MIN TEMP:  77; 6HR MAX TEMP:  84;

$$

MSZ040-058-241900-
CENTRAL MISSISSIPPI

CITY           SKY/WX    TMP DP  RH WIND       PRES   REMARKS
JACKSON INTL   TSTM      76  74  93 E8        30.01S
6HR MIN TEMP:  75; 6HR MAX TEMP:  86; 6HR PCP:  1.80;

JACKSON HAWKNS CLOUDY    81  79  94 S6        30.00F HX  90
6HR MIN TEMP:  76; 6HR MAX TEMP:  85; 6HR PCP:  0.02;

MADISON        MOCLDY    73  72  94 S5        30.00S
MERIDIAN KEY   CLOUDY    87  76  69 VRB7      30.00S HX  97
6HR MIN TEMP:  77; 6HR MAX TEMP:  87;

MERIDIAN NAS   CLOUDY    87  71  58 S6        29.99F HX  93
6HR MIN TEMP:  77; 6HR MAX TEMP:  89;

RAYMOND        FAIR      82  77  83 S5        29.99F HAZE    HX  91
$$

MSZ059>079-241900-
SOUTH MISSISSIPPI

CITY           SKY/WX    TMP DP  RH WIND       PRES   REMARKS
COLUMBIA       LGT RAIN  73  73 100 VRB5      30.08R
HATTIESBURG    LGT RAIN  75  75 100 SW5       30.05S FOG
6HR MIN TEMP:  74; 6HR MAX TEMP:  77; 6HR PCP:  1.12;

LAUREL         CLOUDY    74  74 100 SW6       30.04S
MCCOMB         LGT RAIN  77  74  90 W5        30.04S
6HR MIN TEMP:  74; 6HR MAX TEMP:  77; 6HR PCP:  1.10;

NATCHEZ        NOT AVBL
PINE BELT      RAIN      73  73 100 CALM      30.05S
6HR MIN TEMP:  73; 6HR MAX TEMP:  75; 6HR PCP:  1.39;

$$

MSZ080>082-241900-
COASTAL MISSISSIPPI

CITY           SKY/WX    TMP DP  RH WIND       PRES   REMARKS
BAY ST LOUIS   PTSUNNY   81  77  89 N13       30.05R
BILOXI         LGT RAIN  75  73  94 N3        30.05R
                                      6HR PCP:  0.89;

PASCAGOULA     PTSUNNY   77  73  87 N6        30.05F
6HR MIN TEMP:  74; 6HR MAX TEMP:  77; 6HR PCP:  0.28;

GULFPORT       CLOUDY    77  75  93 N7        30.05R
6HR MIN TEMP:  74; 6HR MAX TEMP:  80; 6HR PCP:  0.68;

$$

LAZ007>009-015>016-023>026-241900-
NORTHEAST LOUISIANA

CITY           SKY/WX    TMP DP  RH WIND       PRES   REMARKS
BASTROP        CLOUDY    85  77  75 W9        29.99S HX  96
TALLULAH/VBURG CLOUDY    86  77  74 CALM      29.98F HX  97
6HR MIN TEMP:  75; 6HR MAX TEMP:  85;

VIDALIA        MOCLDY    85  76  74 W10       30.00F HX  94
$$




USA.gov is the U.S. government's official web portal to all federal, state and local government web resources and services.